{"data":{"norad_id":69757,"intl_designator":"2026-150U","name":"STARLINK-38058","alt_names":[],"object_type":"PAYLOAD","status":"ACTIVE","operator":null,"country":"US","launch_date":"2026-07-02","launch_site_code":"AFWTR","launch_vehicle":null,"mission":null,"orbit_class":"UNKNOWN","rcs_meters":null,"size_class":null,"mass_kg":null,"dimensions":null,"purposes":["comms"],"wikipedia_slug":null,"has_3d_model":false,"image_url":null,"decayed_at":null,"tle_current":{"epoch":"2026-09-19T06:28:55.820064Z","epoch_age_seconds":124068,"freshness":"FRESH","line1":"1 69757U 26150U   26262.27009051  .00013351  00000+0  41517-3 0  9993","line2":"2 69757  97.2849 101.1590 0001496  87.2237 272.9177 15.33443141 13548","mean_motion":15.33443141,"eccentricity":0.0001496,"inclination_deg":97.2849,"raan_deg":101.159,"arg_perigee_deg":87.2237,"mean_anomaly_deg":272.9177,"bstar":0.00041517,"rev_number":1354,"period_min":93.906318499748,"perigee_km":464.52489017825,"apogee_km":466.57252094135,"semimajor_km":6843.6857055598,"source":"CELESTRAK","updated_at":"2026-09-20T09:00:44.289819Z"}}}